Date String (YYYY-MM-DD hh:mm:ss) UTC,Instrument flags,absolute air pressure of the measurement (hPa),sample flow rate (lpm),inlet stack bypass flow (lpm),air temperature of the measurement (°C),ambient temperature measured by the external sensor (°C),aerosol sample conditioner tube jacket temperature (°C),OPC LED temperature (°C),internal box temperature (°C),relative humidity of the measurement (%),span deviation,mass concentration of particles derived from Lorenz-Mie calculation of OPC scattering (μg/m³),mass concentration of particles derived from Lorenz-Mie calculation of OPC scattering (μg/m³),mass concentration of particles derived from Lorenz-Mie calculation of OPC scattering (μg/m³)
DateTimeUTC,F1_M11,P_M11,Q1_M11,Q2_M11,T1_M11,T2_M11,T3_M11,T4_M11,T5_M11,U1_M11,ZSPAN_M11,X0_M11,X2_M11,X1_M11
2023-06-22 22:00:00,SystemResetWarning,0832.0,5.02,000.00,032.7,028.0,000.0,040.0,031.8,34.2,0000.0,0008.73,0003.99,0003.21
2023-06-22 22:01:00,SystemResetWarning,0832.0,4.99,000.00,032.6,028.1,000.0,040.1,031.9,34.0,0000.0,0008.93,0004.00,0003.19
2023-06-22 22:02:00,SystemResetWarning,0832.1,4.99,000.00,032.6,028.2,000.0,040.1,031.9,33.5,0000.0,0008.80,0003.96,0003.18
2023-06-22 22:03:00,SystemResetWarning,0832.1,4.99,000.00,032.6,028.2,000.0,040.2,031.9,33.3,0000.0,0008.60,0003.86,0003.15
2023-06-22 22:04:00,SystemResetWarning,0832.1,5.03,000.00,032.6,028.3,000.0,040.2,032.0,33.8,0000.0,0008.09,0003.76,0003.12
2023-06-22 22:05:00,SystemResetWarning,0832.2,4.98,000.00,032.6,028.3,000.0,040.3,032.0,34.6,0000.0,0007.70,0003.74,0003.10
2023-06-22 22:06:00,SystemResetWarning,0832.2,4.99,000.00,032.6,027.2,000.0,040.3,032.1,33.9,0000.0,0007.74,0003.73,0003.08
2023-06-22 22:07:00,SystemResetWarning,0832.1,5.01,000.00,032.6,025.7,000.0,040.2,032.1,33.2,0000.0,0007.70,0003.72,0003.07
2023-06-22 22:08:00,SystemResetWarning,0832.0,5.00,000.00,032.6,025.4,000.0,040.2,031.9,33.3,0000.0,0007.68,0003.71,0003.04
2023-06-22 22:09:00,SystemResetWarning,0832.0,5.01,000.00,032.3,025.6,000.0,040.2,031.6,33.6,0000.0,0007.60,0003.70,0003.01
2023-06-22 22:10:00,SystemResetWarning,0832.0,5.01,000.00,032.2,026.0,000.0,040.2,031.5,34.3,0000.0,0007.29,0003.67,0002.99
2023-06-22 22:11:00,SystemResetWarning,0831.9,4.99,000.00,032.1,026.4,000.0,040.2,031.5,34.8,0000.0,0006.92,0003.63,0002.98
2023-06-22 22:12:00,SystemResetWarning,0831.9,5.01,000.00,032.1,026.8,000.0,040.1,031.6,33.4,0000.0,0006.36,0003.60,0003.00
2023-06-22 22:13:00,SystemResetWarning,0831.9,4.99,000.00,032.0,027.1,000.0,040.1,031.7,33.2,0000.0,0006.30,0003.61,0003.03
2023-06-22 22:14:00,SystemResetWarning,0831.8,5.02,000.00,032.0,027.4,000.0,040.1,031.7,33.5,0000.0,0006.14,0003.58,0003.01
2023-06-22 22:15:00,SystemResetWarning,0831.8,5.00,000.00,031.9,027.6,000.0,040.1,031.7,33.5,0000.0,0006.06,0003.59,0003.02
2023-06-22 22:16:00,SystemResetWarning,0831.8,4.99,000.00,031.9,027.8,000.0,040.1,031.7,33.8,0000.0,0006.08,0003.58,0003.02
2023-06-22 22:17:00,SystemResetWarning,0831.8,5.01,000.00,031.9,027.9,000.0,040.0,031.8,34.4,0000.0,0006.09,0003.58,0003.05
2023-06-22 22:18:00,SystemResetWarning,0831.9,5.01,000.00,031.8,028.1,000.0,040.0,031.8,34.4,0000.0,0006.21,0003.61,0003.07
2023-06-22 22:19:00,SystemResetWarning,0832.2,5.00,000.00,031.8,028.2,000.0,040.0,031.8,34.1,0000.0,0006.61,0003.57,0003.09
2023-06-22 22:20:00,SystemResetWarning,0832.0,4.97,000.00,031.8,028.2,000.0,040.0,031.8,35.0,0000.0,0006.98,0003.57,0003.09
2023-06-22 22:21:00,SystemResetWarning,0831.8,5.05,000.00,031.9,027.9,000.0,040.0,032.0,34.9,0000.0,0006.91,0003.59,0003.10
2023-06-22 22:22:00,SystemResetWarning,0831.7,4.97,000.00,032.0,026.3,000.0,039.9,032.0,34.2,0000.0,0006.84,0003.60,0003.11
2023-06-22 22:23:00,SystemResetWarning,0831.7,5.02,000.00,032.1,025.5,000.0,039.8,032.0,33.5,0000.0,0006.74,0003.59,0003.11
2023-06-22 22:24:00,SystemResetWarning,0831.9,5.00,000.00,032.0,025.6,000.0,039.8,031.6,33.4,0000.0,0007.07,0003.59,0003.11
2023-06-22 22:25:00,SystemResetWarning,0831.9,5.00,000.00,031.8,025.9,000.0,039.8,031.6,33.4,0000.0,0008.09,0003.60,0003.12
2023-06-22 22:26:00,SystemResetWarning,0831.9,5.00,000.00,031.8,026.3,000.0,039.8,031.5,33.4,0000.0,0008.42,0003.63,0003.13
2023-06-22 22:27:00,SystemResetWarning,0831.8,5.00,000.00,031.7,026.7,000.0,039.8,031.6,32.6,0000.0,0008.73,0003.64,0003.15
2023-06-22 22:28:00,SystemResetWarning,0831.8,5.00,000.00,031.7,027.0,000.0,039.8,031.6,34.0,0000.0,0008.97,0003.64,0003.15
2023-06-22 22:29:00,SystemResetWarning,0831.8,4.99,000.00,031.6,027.3,000.0,039.8,031.6,34.6,0000.0,0008.95,0003.62,0003.16
2023-06-22 22:30:00,SystemResetWarning,0831.9,5.00,000.00,031.6,027.6,000.0,039.8,031.7,33.5,0000.0,0008.79,0003.61,0003.16
2023-06-22 22:31:00,SystemResetWarning,0831.9,5.00,000.00,031.5,027.8,000.0,039.8,031.7,33.7,0000.0,0008.48,0003.61,0003.18
2023-06-22 22:32:00,SystemResetWarning,0831.9,4.98,000.00,031.5,027.9,000.0,039.8,031.7,34.8,0000.0,0008.44,0003.59,0003.18
2023-06-22 22:33:00,SystemResetWarning,0831.9,5.03,000.00,031.6,028.1,000.0,039.8,031.8,33.7,0000.0,0008.53,0003.60,0003.19
2023-06-22 22:34:00,SystemResetWarning,0831.9,4.98,000.00,031.6,028.2,000.0,039.8,031.9,33.2,0000.0,0008.65,0003.63,0003.21
2023-06-22 22:35:00,SystemResetWarning,0831.9,5.00,000.00,031.6,028.3,000.0,039.8,031.9,33.3,0000.0,0008.54,0003.65,0003.22
2023-06-22 22:36:00,SystemResetWarning,0831.8,5.00,000.00,031.7,028.0,000.0,039.8,032.0,34.0,0000.0,0007.72,0003.65,0003.22
2023-06-22 22:37:00,SystemResetWarning,0831.8,5.00,000.00,031.7,026.2,000.0,039.7,032.0,32.8,0000.0,0007.49,0003.67,0003.23
2023-06-22 22:38:00,SystemResetWarning,0832.1,5.00,000.00,031.7,025.6,000.0,039.6,032.0,33.0,0000.0,0007.30,0003.70,0003.23
2023-06-22 22:39:00,SystemResetWarning,0831.8,5.02,000.00,031.5,025.7,000.0,039.6,031.6,33.3,0000.0,0007.20,0003.74,0003.23
2023-06-22 22:40:00,SystemResetWarning,0831.7,5.00,000.00,031.4,026.1,000.0,039.6,031.5,33.4,0000.0,0007.82,0003.75,0003.23
2023-06-22 22:41:00,SystemResetWarning,0831.7,5.00,000.00,031.3,026.5,000.0,039.6,031.5,33.7,0000.0,0007.78,0003.76,0003.23
2023-06-22 22:42:00,SystemResetWarning,0831.7,4.98,000.00,031.3,026.9,000.0,039.6,031.5,34.8,0000.0,0007.80,0003.78,0003.23
2023-06-22 22:43:00,SystemResetWarning,0831.7,5.00,000.00,031.2,027.2,000.0,039.6,031.5,34.5,0000.0,0008.05,0003.80,0003.24
2023-06-22 22:44:00,SystemResetWarning,0831.7,5.00,000.00,031.2,027.5,000.0,039.6,031.6,34.3,0000.0,0008.59,0003.83,0003.25
2023-06-22 22:45:00,SystemResetWarning,0831.7,5.01,000.00,031.2,027.7,000.0,039.5,031.6,33.6,0000.0,0009.15,0003.87,0003.26
2023-06-22 22:46:00,SystemResetWarning,0831.7,4.99,000.00,031.2,027.9,000.0,039.5,031.7,33.1,0000.0,0009.29,0003.88,0003.27
2023-06-22 22:47:00,SystemResetWarning,0831.7,5.00,000.00,031.2,028.1,000.0,039.5,031.7,33.4,0000.0,0009.44,0003.92,0003.28
2023-06-22 22:48:00,SystemResetWarning,0831.7,4.99,000.00,031.1,028.2,000.0,039.5,031.7,33.7,0000.0,0009.48,0003.93,0003.29
2023-06-22 22:49:00,SystemResetWarning,0831.6,4.99,000.00,031.1,028.2,000.0,039.5,031.8,34.4,0000.0,0009.55,0003.98,0003.30
2023-06-22 22:50:00,SystemResetWarning,0831.6,4.99,000.00,031.2,026.7,000.0,039.4,031.8,34.6,0000.0,0009.45,0003.98,0003.32
2023-06-22 22:51:00,SystemResetWarning,0831.5,5.03,000.00,031.2,025.0,000.0,039.3,031.7,34.5,0000.0,0008.98,0004.04,0003.35
2023-06-22 22:52:00,SystemResetWarning,0831.5,4.97,000.00,031.2,024.6,000.0,039.3,031.6,34.8,0000.0,0008.99,0004.08,0003.36
2023-06-22 22:53:00,SystemResetWarning,0831.4,5.04,000.00,031.0,024.9,000.0,039.2,031.2,34.6,0000.0,0009.05,0004.11,0003.38
2023-06-22 22:54:00,SystemResetWarning,0831.5,4.97,000.00,031.0,025.3,000.0,039.2,031.2,33.8,0000.0,0009.10,0004.12,0003.38
2023-06-22 22:55:00,SystemResetWarning,0831.4,5.00,000.00,031.1,025.9,000.0,039.2,031.2,35.3,0000.0,0008.42,0004.14,0003.40
2023-06-22 22:56:00,SystemResetWarning,0831.4,5.01,000.00,031.2,026.3,000.0,039.2,031.3,34.5,0000.0,0007.98,0004.13,0003.42
2023-06-22 22:57:00,SystemResetWarning,0831.4,4.99,000.00,031.3,026.7,000.0,039.2,031.4,33.9,0000.0,0007.69,0004.11,0003.44
2023-06-22 22:58:00,SystemResetWarning,0831.3,5.01,000.00,031.3,027.0,000.0,039.3,031.4,33.8,0000.0,0007.69,0004.08,0003.44
2023-06-22 22:59:00,SystemResetWarning,0831.4,4.98,000.00,031.3,027.3,000.0,039.3,031.5,33.9,0000.0,0008.50,0004.12,0003.45
